Regional Weather Roundup
Issued by NWS Newport/Morehead, NC

Current Version | Previous Version | Text Only | Print | Product List | Glossary On
Versions: 1 2 3 4 5 6 7 8 9 10 11 12 13 14 15 16 17 18 19 20 21 22 23 24 25 26 27 28 29 30 31 32 33 34 35 36 37 38 39 40 41 42 43 44 45 46 47 48 49 50
000 ASUS42 KMHX 282313 RWRMHX WEATHER ROUNDUP FOR EASTERN NORTH CAROLINA NATIONAL WEATHER SERVICE NEWPORT/MOREHEAD CITY NC 700 PM EDT FRI AUG 28 2015 NOTE: "FAIR" INDICATES FEW OR NO CLOUDS BELOW 12,000 FEET WITH NO SIGNIFICANT WEATHER AND/OR OBSTRUCTIONS TO VISIBILITY NCZ015>017-031-032-045>047-102-103-290000- NORTH COAST CITY SKY/WX TMP DP RH WIND PRES REMARKS EDENTON PTCLDY 77 59 54 E5 30.15S ELIZABETH CITY MOCLDY 77 60 55 NE10 30.16S KITTY HAWK MOCLDY 77 63 61 NE7 30.14S MANTEO MOCLDY 75 64 67 NE9 30.16S $$ NCZ045>047-081-094-103-104-290000- CENTRAL COAST CITY SKY/WX TMP DP RH WIND PRES REMARKS FRISCO CLEAR 77 65 66 NE12 30.13R SWANQUARTER NOT AVBL $$ NCZ095-097-098-100-101-290000- SOUTHERN COAST CITY SKY/WX TMP DP RH WIND PRES REMARKS BEAUFORT CLEAR 77 67 71 NE13 30.12S CEDAR ISLAND NOT AVBL JACKSONVILLE CLEAR 80 62 54 NE9 30.12R PINEY ISLAND CLEAR N/A N/A N/A NE17 30.13R WILMINGTON PTCLDY 79 67 66 NE6 30.11S $$ NCZ011>013-027>030-043-044-078>080-089-090>093-098-290000- COASTAL PLAIN CITY SKY/WX TMP DP RH WIND PRES REMARKS AHOSKIE PTCLDY 78 57 47 CALM 30.15S CLINTON MOCLDY 80 64 58 E3 30.13S ELIZABETHTOWN MOCLDY 80 64 57 CALM 30.13R GOLDSBORO PTCLDY 81 62 53 E8 30.12S GREENVILLE MOCLDY 81 63 54 E6 30.16R HAVELOCK PTCLDY 79 65 62 NE9 30.14R KENANSVILLE N/A 78 64 63 CALM 30.14R KINSTON PTCLDY 81 63 54 E7 30.14S NEW BERN PTCLDY 78 60 53 NE10 30.14S RICHLANDS CLEAR 79 63 57 NE5 30.13R ROCKY MOUNT CLEAR 84 55 36 E5 30.13S WASHINGTON PTCLDY 77 63 62 E5 30.15R WHITEVILLE PTCLDY 78 65 64 CALM 30.12R $$ AMZ130-135-150-152-154-156-158-170-250-252-270-ANZ085-086-088-633-658-670-290000- MARINE OBSERVATIONS STATION/POSITION TIME TEMP WIND PRES WAVE SWELL AIR SEA DIR/SP/G HT/PER HT/PER (UTC) (F) (DEG/KT/KT) (MB) (FT/S) (FT/S) CHESAPEAKE LIGHT 2300 76 60/ 9/ 9 1022.0 64 E VA BEACH 2250 76 80 30/ 14/ 16 1020.6 4/ 9 3/ 9 DUCK NOT AVBL 2 E DUCK 2211 79 N/A 4/11 2/11 OREGON INLET NOT AVBL 13E OREGON INLT 2300 78 N/A 4/10 2/11 HATTERAS CG NOT AVBL DIAMOND BUOY 2250 79 84 40/ 17/ 21 1019.6 5/11 3/11 CAPE LOOKOUT 2300 78 50/ 18/ 20 1019.6 BEAUFORT LAB NOT AVBL 30 SE NEW RVR IN 2208 80 82 60/ 17/ 21 1019.6 30 SE NEW RVR IN 2225 82 N/A 5/ 5 2/11 27 SE WRIGHTSVLE 2200 77 82 60/ 16/ 19 N/A 5 SE WRIGHTSVLE 2208 81 82 80/ 14/ 19 1019.2 225 S CAPE HAT 2250 82 84 230/ 10/ 12 1017.7 3/11 3/11 41 SE CHARLESTON 2250 81 84 50/ 21/ 25 1017.5 5/ 6 2/ 9 $$

USA.gov is the U.S. government's official web portal to all federal, state and local government web resources and services.